N8YZF Weather Reports


Display with metric or nautical units.
time (UTC)temp
F
wind
direction
speed
MPH
gust
MPH
rain 1hr
in
rain 24hr
in
rain mn
in
humidity
%
barometer
mb
20180816160938 79 155 1.0 0.0 0.00 0.00 0.00 77 1013.5
20180816160405 78 158 1.0 7.0 0.00 0.00 0.00 80 1013.5
20180816155759 77 174 0.0 1.0 0.00 0.00 0.00 80 1013.5
20180816155223 77 185 1.0 6.0 0.00 0.00 0.00 81 1013.5
20180816154650 77 185 2.0 6.0 0.00 0.00 0.00 82 1013.5
20180816154055 77 185 3.0 5.0 0.00 0.00 0.00 81 1013.7
20180816153517 77 185 1.0 5.0 0.00 0.00 0.00 81 1013.7
20180816153005 77 184 0.0 0.0 0.00 0.00 0.00 81 1013.4
20180816152459 77 184 0.0 3.0 0.00 0.00 0.00 81 1013.4
20180816151929 77 185 1.0 4.0 0.00 0.00 0.00 82 1013.4
20180816151309 77 185 3.0 7.0 0.00 0.00 0.00 83 1013.4
20180816150733 76 184 4.0 8.0 0.00 0.00 0.00 82 1013.4
20180816150155 76 172 3.0 8.0 0.00 0.00 0.00 82 1013.4
20180816145600 76 135 1.0 7.0 0.00 0.00 0.00 83 1013.4
20180816145028 76 161 1.0 1.0 0.00 0.00 0.00 83 1013.4
20180816144437 76 161 1.0 2.0 0.00 0.00 0.00 85 1013.3
20180816143901 75 161 0.0 2.0 0.00 0.00 0.00 89 1013.3
20180816143324 74 161 0.0 2.0 0.00 0.00 0.00 88 1013.2
20180816142820 73 161 0.0 2.0 0.00 0.00 0.00 90 1013.3
20180816142254 73 161 1.0 0.0 0.00 0.00 0.00 91 1013.2
20180816141718 72 161 2.0 6.0 0.00 0.00 0.00 92 1013.2
20180816141127 71 161 1.0 6.0 0.00 0.00 0.00 92 1013.1
20180816140538 71 161 1.0 2.0 0.00 0.00 0.00 92 1013.1
20180816140020 71 161 1.0 6.0 0.00 0.00 0.00 92 1013.1
20180816135516 71 161 0.0 2.0 0.00 0.00 0.00 93 1013.1
20180816134944 71 161 1.0 2.0 0.00 0.00 0.00 92 1013.1
20180816134320 71 161 1.0 6.0 0.00 0.00 0.00 92 1013.2
20180816133804 71 161 0.0 0.0 0.00 0.00 0.00 93 1013.2
20180816132647 70 161 0.0 0.0 0.00 0.00 0.00 93 1013.2
20180816132114 70 161 0.0 0.0 0.00 0.00 0.00 93 1013.2
20180816131519 70 161 0.0 0.0 0.00 0.00 0.00 94 1013.2
20180816130926 69 161 0.0 0.0 0.00 0.00 0.00 94 1013.2
20180816130352 69 161 0.0 0.0 0.00 0.00 0.00 95 1013.2
20180816125745 69 161 0.0 0.0 0.00 0.00 0.00 95 1013.1
20180816125208 68 161 0.0 0.0 0.00 0.00 0.00 95 1013.0
20180816124632 68 161 0.0 0.0 0.00 0.00 0.00 95 1013.0
20180816124046 68 161 0.0 0.0 0.00 0.00 0.00 95 1013.0
20180816123511 68 161 0.0 0.0 0.00 0.00 0.00 95 1013.0
20180816122923 67 161 0.0 0.0 0.00 0.00 0.00 96 1012.9
20180816122348 67 161 0.0 0.0 0.00 0.00 0.00 97 1012.9
20180816121759 67 161 0.0 0.0 0.00 0.00 0.00 97 1012.8
20180816121210 66 161 0.0 0.0 0.00 0.00 0.00 97 1012.8
20180816120619 66 161 0.0 0.0 0.00 0.00 0.00 97 1012.8
20180816120034 65 161 0.0 0.0 0.00 0.00 0.00 97 1012.6
20180816115452 65 161 0.0 0.0 0.00 0.00 0.00 97 1012.6
20180816114917 65 161 0.0 0.0 0.00 0.00 0.00 97 1012.6
20180816114314 64 161 0.0 0.0 0.00 0.00 0.00 97 1012.5
20180816113736 64 161 0.0 0.0 0.00 0.00 0.00 97 1012.4
20180816113158 64 161 0.0 0.0 0.00 0.00 0.00 97 1012.4
20180816112610 64 161 0.0 0.0 0.00 0.00 0.00 97 1012.1
20180816112042 64 161 0.0 0.0 0.00 0.00 0.00 97 1012.1
20180816111452 63 161 0.0 0.0 0.00 0.00 0.00 96 1012.1
20180816110901 63 161 0.0 0.0 0.00 0.00 0.00 96 1012.1
20180816110326 64 161 0.0 0.0 0.00 0.00 0.00 96 1012.1
20180816105820 64 161 0.0 0.0 0.00 0.00 0.00 96 1011.9
20180816105244 64 161 0.0 0.0 0.00 0.00 0.00 96 1011.9
20180816104708 64 161 0.0 0.0 0.00 0.00 0.00 96 1011.9
20180816104118 64 161 0.0 0.0 0.00 0.00 0.00 96 1011.9
20180816103545 64 161 0.0 0.0 0.00 0.00 0.00 96 1012.0
20180816102952 64 161 0.0 0.0 0.00 0.00 0.00 97 1012.0
20180816102419 64 161 0.0 0.0 0.00 0.00 0.00 97 1012.0
20180816101852 64 161 0.0 0.0 0.00 0.00 0.00 97 1012.0
20180816101246 64 161 0.0 0.0 0.00 0.00 0.00 97 1012.1
20180816100653 64 161 0.0 0.0 0.00 0.00 0.00 97 1012.0
20180816100121 64 161 0.0 0.0 0.00 0.00 0.00 97 1012.0
20180816095529 63 161 0.0 0.0 0.00 0.00 0.00 97 1012.1
20180816094934 63 161 0.0 0.0 0.00 0.00 0.00 97 1012.1
20180816094340 63 161 0.0 0.0 0.00 0.00 0.00 97 1012.0
20180816093757 63 161 0.0 0.0 0.00 0.00 0.00 97 1012.0
20180816093221 62 161 0.0 0.0 0.00 0.00 0.00 96 1011.9
20180816092628 62 161 0.0 0.0 0.00 0.00 0.00 96 1011.9
20180816092058 62 161 0.0 0.0 0.00 0.00 0.00 96 1011.9
20180816090912 62 161 0.0 0.0 0.00 0.00 0.00 96 1012.0
20180816090339 62 161 0.0 0.0 0.00 0.00 0.00 96 1012.0
20180816085733 62 161 0.0 0.0 0.00 0.00 0.00 96 1012.0
20180816085200 62 161 0.0 0.0 0.00 0.00 0.00 96 1012.0
20180816084627 62 161 0.0 0.0 0.00 0.00 0.00 96 1012.0
20180816084036 62 161 0.0 0.0 0.00 0.00 0.00 95 1012.0
20180816083503 62 161 0.0 0.0 0.00 0.00 0.00 95 1012.0
20180816082909 62 161 0.0 0.0 0.00 0.00 0.00 95 1012.0
20180816082314 62 161 0.0 0.0 0.00 0.00 0.00 96 1012.1
20180816081815 62 161 0.0 0.0 0.00 0.00 0.00 96 1012.0
20180816081308 62 161 0.0 0.0 0.00 0.00 0.00 95 1012.0
20180816080719 62 161 0.0 0.0 0.00 0.00 0.00 95 1012.1
20180816080143 62 161 0.0 0.0 0.00 0.00 0.00 95 1012.1
20180816075552 63 161 0.0 0.0 0.00 0.00 0.00 95 1012.1
20180816075018 63 161 0.0 0.0 0.00 0.00 0.00 95 1012.1
20180816074507 63 161 0.0 0.0 0.00 0.00 0.00 95 1012.1
20180816073954 63 161 0.0 0.0 0.00 0.00 0.00 95 1012.0
20180816073418 63 161 0.0 0.0 0.00 0.00 0.00 95 1012.0
20180816072815 63 161 0.0 0.0 0.00 0.00 0.00 95 1011.9
20180816072245 63 161 0.0 0.0 0.00 0.00 0.00 95 1011.9
20180816071713 64 161 0.0 0.0 0.00 0.00 0.00 95 1011.9
20180816071124 64 161 0.0 0.0 0.00 0.00 0.00 95 1011.9
20180816070530 64 161 0.0 0.0 0.00 0.00 0.00 95 1011.9
20180816065940 64 161 0.0 0.0 0.00 0.00 0.00 95 1011.9
20180816065404 64 161 0.0 0.0 0.00 0.00 0.00 95 1011.9
20180816064817 64 161 0.0 0.0 0.00 0.00 0.00 94 1012.0
20180816064227 64 161 0.0 0.0 0.00 0.00 0.00 95 1012.2
20180816063653 64 161 0.0 0.0 0.00 0.00 0.00 95 1012.2
20180816063121 64 161 0.0 0.0 0.00 0.00 0.00 95 1012.2
20180816062531 64 161 0.0 0.0 0.00 0.00 0.00 95 1012.2
20180816062000 64 161 0.0 0.0 0.00 0.00 0.00 94 1012.2
20180816061410 64 161 0.0 0.0 0.00 0.00 0.00 94 1012.2
20180816060807 65 161 0.0 0.0 0.00 0.00 0.00 94 1012.2
20180816060234 65 161 0.0 0.0 0.00 0.00 0.00 94 1012.2
20180816055646 65 161 0.0 0.0 0.00 0.00 0.00 94 1012.2
20180816055112 65 161 0.0 0.0 0.00 0.00 0.00 93 1012.2
20180816054521 65 161 0.0 0.0 0.00 0.00 0.00 93 1012.2
20180816053946 65 161 0.0 0.0 0.00 0.00 0.00 93 1012.3
20180816053416 65 161 0.0 0.0 0.00 0.00 0.00 94 1012.3
20180816052829 65 161 0.0 0.0 0.00 0.00 0.00 94 1012.3
20180816052320 65 161 0.0 0.0 0.00 0.00 0.00 94 1012.3
20180816051810 66 161 0.0 0.0 0.00 0.00 0.00 94 1012.3
20180816051219 66 161 0.0 0.0 0.00 0.00 0.00 93 1012.4
20180816050625 66 161 0.0 0.0 0.00 0.00 0.00 93 1012.4
20180816050032 66 161 0.0 0.0 0.00 0.00 0.00 93 1012.4
20180816045501 66 161 0.0 0.0 0.00 0.00 0.00 92 1012.2
20180816044928 66 161 0.0 0.0 0.00 0.00 0.00 92 1012.2
20180816044323 66 161 0.0 0.0 0.00 0.00 0.00 91 1012.1
20180816043747 67 161 0.0 0.0 0.00 0.00 0.00 92 1012.2
20180816043213 67 161 0.0 0.0 0.00 0.00 0.00 92 1012.2
20180816042622 67 161 0.0 0.0 0.00 0.00 0.00 91 1012.1
20180816042045 67 161 0.0 0.0 0.00 0.00 0.00 91 1012.1
20180816041455 67 161 0.0 0.0 0.00 0.00 0.00 91 1012.0
20180816040908 68 161 0.0 0.0 0.00 0.00 0.00 91 1012.0
20180816040315 68 161 0.0 0.0 0.00 0.00 0.00 91 1012.0
20180816035730 68 161 0.0 0.0 0.00 0.00 0.00 90 1012.2
20180816035158 68 161 0.0 0.0 0.00 0.00 0.00 90 1012.2
20180816034627 69 161 0.0 0.0 0.00 0.00 0.00 90 1012.2
20180816034036 69 161 0.0 0.0 0.00 0.00 0.00 90 1012.2
20180816033504 69 161 0.0 0.0 0.00 0.00 0.00 90 1012.2
20180816032908 69 161 0.0 0.0 0.00 0.00 0.00 89 1012.1
20180816032335 70 161 0.0 0.0 0.00 0.00 0.00 89 1012.1
20180816031819 70 161 0.0 0.0 0.00 0.00 0.00 89 1012.1
20180816031301 70 161 0.0 0.0 0.00 0.00 0.00 89 1012.2
20180816030712 70 161 0.0 0.0 0.00 0.00 0.00 89 1012.2
20180816030140 70 161 0.0 0.0 0.00 0.00 0.00 89 1012.2
20180816025552 71 161 0.0 0.0 0.00 0.00 0.00 89 1012.4
20180816025017 71 161 0.0 0.0 0.00 0.00 0.00 88 1012.4
20180816024423 71 161 0.0 0.0 0.00 0.00 0.00 87 1012.4
20180816023847 71 161 0.0 0.0 0.00 0.00 0.00 87 1012.4
20180816023322 71 161 0.0 0.0 0.00 0.00 0.00 87 1012.4
20180816022811 72 161 0.0 0.0 0.00 0.00 0.00 87 1012.3
20180816022235 72 161 0.0 0.0 0.00 0.00 0.00 86 1012.3
20180816021657 72 161 0.0 0.0 0.00 0.00 0.00 86 1012.3
20180816021100 72 161 0.0 0.0 0.00 0.00 0.00 85 1012.3
20180816020511 73 161 0.0 0.0 0.00 0.00 0.00 85 1012.3
20180816015921 73 161 0.0 0.0 0.00 0.00 0.00 84 1012.2
20180816015325 73 161 0.0 0.0 0.00 0.00 0.00 84 1012.2
20180816014823 73 161 0.0 0.0 0.00 0.00 0.00 83 1012.2
20180816014316 74 161 0.0 0.0 0.00 0.00 0.00 83 1012.2
20180816013740 74 161 0.0 0.0 0.00 0.00 0.00 83 1012.2
20180816013209 74 161 0.0 0.0 0.00 0.00 0.00 82 1012.2
20180816012618 74 161 0.0 0.0 0.00 0.00 0.00 82 1012.1
20180816012048 75 161 0.0 0.0 0.00 0.00 0.00 81 1012.1
20180816011500 76 161 0.0 0.0 0.00 0.00 0.00 79 1012.2
20180816010906 76 161 0.0 0.0 0.00 0.00 0.00 78 1012.2
20180816010315 77 161 0.0 0.0 0.00 0.00 0.00 77 1012.3
20180816005723 78 161 0.0 0.0 0.00 0.00 0.00 76 1012.2
20180816005151 78 161 0.0 0.0 0.00 0.00 0.00 75 1012.2
20180816004616 78 161 0.0 0.0 0.00 0.00 0.00 74 1012.3
20180816004025 79 161 0.0 0.0 0.00 0.00 0.00 73 1012.4
20180816003454 80 161 0.0 0.0 0.00 0.00 0.00 72 1012.4
20180816002905 80 161 0.0 0.0 0.00 0.00 0.00 72 1012.5
20180816002310 80 161 0.0 0.0 0.00 0.00 0.00 71 1012.5
20180816001741 80 161 0.0 0.0 0.00 0.00 0.00 70 1012.5
20180816001150 81 161 0.0 0.0 0.00 0.00 0.00 68 1012.3
20180816000556 81 161 0.0 0.0 0.00 0.00 0.00 67 1012.3
20180816000007 82 161 0.0 0.0 0.00 0.00 0.00 66 1012.4
20180815235429 82 161 0.0 0.0 0.00 0.00 0.00 65 1012.4
20180815234901 82 161 0.0 0.0 0.00 0.00 0.00 65 1012.4
20180815233714 82 161 0.0 0.0 0.00 0.00 0.00 64 1012.3
20180815233145 82 161 0.0 0.0 0.00 0.00 0.00 64 1012.3
20180815232555 82 161 0.0 0.0 0.00 0.00 0.00 64 1012.2
20180815232023 82 161 0.0 0.0 0.00 0.00 0.00 63 1012.2
20180815231427 82 161 0.0 0.0 0.00 0.00 0.00 64 1012.2
20180815230838 82 161 0.0 0.0 0.00 0.00 0.00 63 1012.2
20180815230308 82 161 0.0 0.0 0.00 0.00 0.00 63 1012.2
20180815225807 82 161 0.0 0.0 0.00 0.00 0.00 62 1012.1
20180815225233 82 161 0.0 0.0 0.00 0.00 0.00 63 1012.1
20180815224659 83 161 0.0 0.0 0.00 0.00 0.00 63 1012.1
20180815224105 83 161 0.0 0.0 0.00 0.00 0.00 62 1012.0
20180815223525 83 159 0.0 0.0 0.00 0.00 0.00 61 1012.0
20180815222932 83 160 1.0 1.0 0.00 0.00 0.00 60 1012.0
20180815222325 83 160 1.0 5.0 0.00 0.00 0.00 59 1012.0
20180815221834 84 160 1.0 5.0 0.00 0.00 0.00 58 1012.0
20180815221317 84 161 1.0 1.0 0.00 0.00 0.00 58 1012.0
20180815220730 84 161 2.0 5.0 0.00 0.00 0.00 58 1012.0
20180815220156 85 163 1.0 5.0 0.00 0.00 0.00 57 1012.1
20180815215609 85 210 0.0 0.0 0.00 0.00 0.00 54 1012.1
20180815215034 85 210 1.0 4.0 0.00 0.00 0.00 54 1012.1
20180815214519 85 211 0.0 4.0 0.00 0.00 0.00 54 1012.1
20180815214011 85 211 0.0 1.0 0.00 0.00 0.00 55 1012.1
20180815213438 85 211 1.0 3.0 0.00 0.00 0.00 54 1012.1
20180815212819 85 210 1.0 2.0 0.00 0.00 0.00 55 1012.1
20180815212303 85 211 0.0 2.0 0.00 0.00 0.00 54 1012.1
20180815211732 85 211 1.0 3.0 0.00 0.00 0.00 53 1012.1
20180815211142 85 211 1.0 6.0 0.00 0.00 0.00 53 1012.3
20180815210547 85 211 1.0 7.0 0.00 0.00 0.00 52 1012.3
20180815205957 86 215 1.0 7.0 0.00 0.00 0.00 54 1012.4
20180815205418 86 218 1.0 7.0 0.00 0.00 0.00 52 1012.4
20180815204844 86 214 1.0 7.0 0.00 0.00 0.00 54 1012.4
20180815204318 86 215 0.0 0.0 0.00 0.00 0.00 53 1012.5
20180815203811 85 215 0.0 2.0 0.00 0.00 0.00 53 1012.5
20180815203236 85 223 1.0 5.0 0.00 0.00 0.00 52 1012.5
20180815202647 86 229 1.0 5.0 0.00 0.00 0.00 53 1012.6
20180815202109 85 238 2.0 5.0 0.00 0.00 0.00 53 1012.6
20180815201509 85 237 1.0 5.0 0.00 0.00 0.00 52 1012.8
20180815200928 85 213 0.0 0.0 0.00 0.00 0.00 54 1012.8
20180815200353 85 213 0.0 0.0 0.00 0.00 0.00 53 1012.7
20180815195750 85 208 0.0 0.0 0.00 0.00 0.00 53 1012.8
20180815195214 85 208 0.0 0.0 0.00 0.00 0.00 54 1012.9
20180815194642 85 215 0.0 0.0 0.00 0.00 0.00 53 1012.9
20180815194057 85 212 0.0 1.0 0.00 0.00 0.00 55 1012.9
20180815193519 85 221 2.0 5.0 0.00 0.00 0.00 53 1012.9
20180815192926 85 229 1.0 4.0 0.00 0.00 0.00 53 1012.9
20180815192356 85 272 0.0 0.0 0.00 0.00 0.00 54 1012.9
20180815191831 85 271 2.0 5.0 0.00 0.00 0.00 52 1012.9
20180815191311 85 282 3.0 6.0 0.00 0.00 0.00 52 1013.0
20180815190731 85 271 1.0 8.0 0.00 0.00 0.00 53 1013.0
20180815190151 85 263 1.0 8.0 0.00 0.00 0.00 53 1013.0
20180815185558 85 246 0.0 0.0 0.00 0.00 0.00 53 1013.3
20180815185028 85 235 0.0 0.0 0.00 0.00 0.00 53 1013.3
20180815184436 85 253 1.0 3.0 0.00 0.00 0.00 54 1013.3
20180815183900 85 248 2.0 4.0 0.00 0.00 0.00 56 1013.3
20180815183324 84 198 2.0 4.0 0.00 0.00 0.00 57 1013.3
20180815182246 84 246 3.0 6.0 0.00 0.00 0.00 57 1013.4
20180815181706 84 257 2.0 6.0 0.00 0.00 0.00 56 1013.4
20180815181116 84 244 2.0 9.0 0.00 0.00 0.00 56 1013.4
20180815180525 85 282 3.0 9.0 0.00 0.00 0.00 55 1013.4
20180815175936 85 260 3.0 8.0 0.00 0.00 0.00 53 1013.4
20180815175406 85 213 3.0 7.0 0.00 0.00 0.00 54 1013.4
20180815174831 84 240 2.0 7.0 0.00 0.00 0.00 55 1013.4
20180815174315 84 273 1.0 7.0 0.00 0.00 0.00 55 1013.3
20180815173800 84 252 0.0 4.0 0.00 0.00 0.00 57 1013.4
20180815173222 84 259 0.0 0.0 0.00 0.00 0.00 57 1013.3
20180815172633 83 269 2.0 5.0 0.00 0.00 0.00 59 1013.4
20180815172055 83 263 4.0 8.0 0.00 0.00 0.00 60 1013.4
20180815171508 83 240 4.0 6.0 0.00 0.00 0.00 58 1013.4
20180815170914 83 265 3.0 7.0 0.00 0.00 0.00 57 1013.4
20180815170344 83 222 2.0 6.0 0.00 0.00 0.00 58 1013.4
20180815165819 83 209 2.0 6.0 0.00 0.00 0.00 61 1013.4
20180815165256 83 231 4.0 6.0 0.00 0.00 0.00 57 1013.4
20180815164722 83 221 4.0 8.0 0.00 0.00 0.00 60 1013.4
20180815164131 82 241 1.0 5.0 0.00 0.00 0.00 61 1013.2
20180815163600 82 255 2.0 6.0 0.00 0.00 0.00 61 1013.2
20180815163011 82 251 3.0 6.0 0.00 0.00 0.00 62 1013.2
20180815162431 82 261 2.0 7.0 0.00 0.00 0.00 62 1013.2
20180815161821 82 269 1.0 7.0 0.00 0.00 0.00 62 1013.2
20180815161253 82 223 3.0 6.0 0.00 0.00 0.00 64 1013.2